Flag for Brazil Weather past 2 weeks in Pirassununga, São Paulo, Brazil

Now
64 °F

Clear.


Feels Like: 64 °F
Forecast: 57 / 90 °F
Wind: 2 mph from East

Location: Pirassununga Airport

Current Time: Aug 31, 2015 at 11:49:14 PM

Latest Report: Aug 31, 2015 at 11:00 PM


Visibility: 10 mi

Pressure: 30.12 "Hg (27.97 "Hg at 632m altitude)

Humidity: 73%

Dew point: 55 °F

Location of PirassunungaLocation

Historic Weather in Pirassununga — Graph

°F

Pirassununga temperature yesterday

Maximum temperature yesterday: 91 °F (at 2:00 PM)
Minimum temperature yesterday: 52 °F (at 6:00 AM)
Average temperature yesterday: 76 °F

Past Weeks' High & Low Weather Summary

 TemperatureHumidityPressure
High93 °F (Aug 31, 2:00 PM)100% (Aug 22, 7:00 AM)30.24 "Hg (Aug 22, 7:00 AM)
Low46 °F (Aug 23, 7:00 AM)14% (Aug 23, 4:00 PM)29.92 "Hg (Aug 23, 4:00 PM)
Average71 °F58%30.09 "Hg
* Reported Aug 16 10:00 PM — Aug 31 10:00 PM, Pirassununga, Weather by CustomWeather, © 2015

Note: Actual official high and low records may vary slightly from our data, if they occured in-between our weather recording intervals... More about our weather records

Advertising

Pirassununga weather history for previous 24 hours

 ConditionsComfort  
Time TempWeatherWind HumidityBarometerVisibility
10:00 PM
Mon, Aug 31
66 °FClear.2 mph68%30.12 "Hg10 mi
9:00 PM70 °FClear.2 mph57%30.09 "Hg10 mi
8:00 PM70 °FClear.2 mph60%30.09 "Hg10 mi
7:00 PM75 °FClear.No wind50%30.07 "Hg10 mi
6:00 PM84 °FClear.3 mph33%30.07 "Hg10 mi
5:00 PM91 °FClear.2 mph17%30.07 "Hg10 mi
2:00 PM93 °FSunny.6 mph20%30.09 "Hg10 mi
1:00 PM91 °FSunny.3 mph24%30.12 "Hg10 mi
12:00 PM88 °FSunny.5 mph33%30.15 "Hg10 mi
11:00 AM86 °FSunny.6 mph35%30.18 "Hg10 mi
10:00 AM79 °FSunny.5 mph48%30.18 "Hg10 mi
9:00 AM73 °FSunny.2 mph57%30.18 "Hg10 mi
8:00 AM63 °FSunny.2 mph83%30.18 "Hg10 mi
7:00 AM55 °FSunny.2 mph94%30.15 "Hg10 mi
6:00 AM55 °FSunny.1 mph88%30.12 "Hg10 mi
11:00 PM
Sun, Aug 30
63 °FClear.2 mph77%30.15 "Hg10 mi
Weather by CustomWeather, © 2015

See weather overviewHow to use our weather pages